SCP
0 0 0 0 0 0 0 0 0 0 0 0 0 0 0 0 0 0 0 0 0 0 0 0 0 0 0 0 0 0 0 0 0 0 0 0 0 0 0 0 0 0 0
0 0 0 0 0 0 0 0 0 0 0 0 0 0 0 0 0 0 0 0 0 0 0 0 0 0 0 0 0 0 0 0 0 0 0 0 0 0 0 0 0 0 0
0 0 0 0 0 0 0 0 0 0 0 0 0 0 0 0 0 0 0 0 0 0 0 0 0 0 0 0 0 0 0 0 0 0 0 0 0 0 0 0 0 0 0
0 0 0 0 0 0 0 0 0 0 0 0 0 0 0 0 0 0 0 0 0 0 0 0 0 0 0 0 0 0 0 0 0 0 0 0 0 0 0 0 0 0 0
0 0 0 0 0 0 0 0 0 0 0 0 0 0 0 0 0 0 0 0 0 0 0 0 0 0 0 0 0 0 0 0 0 0 0 0 0 0 0 0 0 0 0
0 0 0 0 0 0 0 0 0 0 0 0 0 0 0 0 0 0 0 0 0 0 0 0 0 0 0 0 0 0 0 0 0 0 0 0 0 0 0 0 0 0 0
0 0 0 0 0 0 0 0 0 0 0 0 0 0 -0 -0 -0 -0 -0 0 0 0 0 0 0 0 0 0 0 0 0 0 0 0 0 0 0 0 0 0 0 0 0
0 0 0 0 0 0 0 0 0 0 0 0 0 0 0 -0 -0 -0 -0 0 0 0 0 0 0 0 0 0 0 0 0 0 0 0 0 0 0 0 0 0 0 0 0
0 0 0 0 0 0 0 0 0 0 0 0 0 0 0 0 0 0 0 0 0 0 0 0 0 0 0 0 0 0 0 0 0 0 0 0 0 0 0 0 0 0 0
0 0 0 0 0 0 0 0 0 0 0 0 0 0 0 0 0 0 0 0 0 0 0 0 0 0 0 0 0 0 0 0 0 0 0 0 0 0 0 0 0 0 0
0 0 0 0 0 0 0 0 0 0 0 0 0 0 0 0 0 0 0 0 0 0 0 0 0 0 0 0 0 0 0 0 0 0 0 0 0 0 0 0 0 0 0
0 0 0 0 0 0 0 0 0 0 0 0 0 0 0 0 0 0 0 0 0 0 0 0 0 0 0 0 0 0 0 0 0 0 0 0 0 0 0 0 0 0 0
0 0 0 0 0 0 0 0 0 0 0 0 0 0 0 0 0 0 0 0 0 0 0 0 0 0 0 0 0 0 0 0 0 0 0 0 0 0 0 0 0 0 0
0 0 0 0 0 0 0 0 0 0 0 0 0 0 0 0 0 0 0 0 0 0 0 0 0 0 0 0 0 0 0 0 0 0 0 0 0 0 0 0 0 0 0
0 0 0 0 0 0 0 0 0 0 0 0 0 0 0 0 0 0 0 0 0 0 0 0 0 0 0 0 0 0 0 0 0 0 0 0 0 0 0 0 0 0 0
0 0 0 0 0 0 0 0 0 0 0 0 0 0 0 0 0 0 0 0 0 0 0 0 0 0 0 0 0 0 0 0 0 0 0 0 0 0 0 0 0 0 0
0 0 0 0 0 0 0 0 0 0 0 0 0 0 0 0 0 0 0 0 0 0 0 0 0 0 0 0 0 0 0 0 0 0 0 0 0 0 0 0 0 0 0
0 0 0 0 0 0 0 0 0 0 0 0 0 0 0 0 0 0 0 0 0 0 0 0 0 0 0 0 0 0 0 0 0 0 0 0 0 0 0 0 0 0 0
0 0 0 0 0 0 0 0 0 0 0 0 0 0 0 0 0 0 0 0 0 0 0 0 0 0 0 0 0 0 0 0 0 0 0 0 0 0 0 0 0 0 0
0 0 0 0 0 0 0 0 0 0 0 0 0 0 0 0 0 0 0 0 0 0 0 0 0 0 0 0 0 0 0 0 0 0 0 0 0 0 0 0 0 0 0
0 0 0 0 0 0 0 0 0 0 0 0 0 0 0 0 0 0 0 0 0 0 0 0 0 0 0 0 0 0 0 0 0 0 0 0 0 0 0 0 0 0 0
0 0 0 0 0 0 0 0 0 0 0 0 0 0 0 0 0 0 0 0 0 0 0 0 0 0 0 0 0 0 0 0 0 0 0 0 0 0 0 0 0 0 0
0 0 0 0 0 0 0 0 0 0 0 0 0 0 0 0 0 0 0 0 0 0 0 0 0 0 0 0 0 0 0 0 0 0 0 0 0 0 0 0 0 0 0
0 0 0 0 0 0 0 0 0 0 0 0 0 0 0 0 0 0 0 0 0 0 0 0 0 0 0 0 0 0 0 0 0 0 0 0 0 0 0 0 0 0 0
0 0 0 0 0 0 0 0 0 0 0 0 0 0 0 0 0 0 0 0 0 0 0 0 0 0 0 0 0 0 0 0 0 0 0 0 0 0 0 0 0 0 0
0 0 0 0 0 0 0 0 0 0 0 0 0 0 0 0 0 0 0 0 0 0 0 0 0 0 0 0 0 0 0 0 0 0 0 0 0 0 0 0 0 0 0
Wind_Speed
3 3 3 2 2 2 3 2 2 3 3 3 3 3 3 2 2 2 3 6 5 5 4 4 3 3 3 3 3 3 3 2 2 2 2 2 2 3 3 3 4 4 5
3 3 3 3 2 2 2 2 2 3 3 2 3 3 2 2 2 2 2 4 6 6 5 4 4 4 4 3 3 3 3 3 3 3 2 2 3 3 4 4 5 4 5
3 3 3 3 2 2 3 3 3 2 3 3 3 3 2 2 2 2 2 2 2 5 6 5 4 4 5 4 3 3 3 3 3 4 4 4 4 4 4 5 5 5 6
3 3 3 3 3 3 3 3 3 3 3 3 3 2 2 2 2 2 2 2 1 1 3 4 5 5 4 5 4 4 4 4 4 4 4 4 4 4 5 5 6 6 6
3 3 3 3 3 2 3 3 3 3 3 4 3 2 2 2 2 2 2 2 1 1 1 2 3 5 5 5 4 4 4 4 4 4 4 4 5 5 5 6 6 6 6
3 3 3 3 3 3 3 3 4 3 3 3 3 3 2 2 2 2 2 1 1 1 1 1 0 2 3 5 5 4 4 4 4 3 4 4 5 5 6 6 6 6 6
3 3 3 4 3 3 3 4 4 4 3 3 3 3 2 2 2 2 2 1 1 1 0 1 1 1 0 2 4 5 5 4 4 3 4 4 5 5 6 6 7 7 7
3 2 3 3 3 3 4 4 4 3 2 3 2 3 3 4 3 2 2 1 1 1 0 0 1 1 1 1 2 4 5 5 4 4 4 5 5 6 6 7 7 7 7
3 2 3 3 3 3 4 4 4 4 3 3 2 2 2 2 2 3 3 2 2 2 2 1 1 1 1 1 1 2 4 5 5 5 5 5 6 6 7 7 7 8 8
3 3 3 3 3 3 4 4 4 3 4 3 3 1 1 0 2 2 3 3 3 3 3 2 2 2 2 1 1 3 3 4 5 5 5 6 6 7 7 8 8 8 8
3 3 3 3 4 3 4 4 4 4 3 4 3 2 2 2 2 2 2 3 3 3 3 3 2 2 2 2 2 2 3 3 5 6 6 7 7 7 8 8 9 9 9
3 3 3 3 4 3 4 4 4 4 4 4 3 3 3 3 3 3 3 3 3 2 3 3 3 2 2 2 2 2 3 4 5 7 7 7 7 8 8 9 9 9 9
3 4 3 4 4 3 4 4 4 4 4 4 4 3 3 2 2 2 3 2 2 2 2 3 2 2 2 2 2 2 4 5 6 7 8 8 8 8 8 9 9 10 10
4 4 4 4 4 4 4 4 3 4 3 4 4 3 2 2 2 2 2 2 3 3 3 3 2 2 2 2 2 4 4 5 6 7 8 8 8 8 8 9 9 9 10
3 4 4 4 4 4 4 4 3 4 4 3 3 3 3 2 2 2 2 3 4 4 3 3 2 2 2 2 2 4 4 4 7 8 8 8 7 8 8 9 9 9 10
3 4 4 4 4 3 4 4 3 3 4 3 3 3 3 2 2 3 3 4 4 4 4 2 2 2 3 3 3 4 5 5 7 8 8 8 8 8 9 9 10 10 10
4 5 5 4 4 4 4 4 5 5 5 4 4 4 4 4 3 3 3 4 4 4 5 4 3 3 4 5 4 4 4 5 4 6 8 8 8 9 9 9 10 10 10
4 4 4 5 4 4 4 4 5 5 5 5 5 5 5 4 5 4 4 5 5 5 5 6 4 4 5 5 5 5 5 4 5 5 7 8 9 9 9 9 9 10 10
4 4 4 5 5 5 5 5 5 5 5 5 5 5 5 5 6 5 5 5 4 4 4 5 5 4 4 4 5 5 5 5 5 5 7 8 8 9 9 9 9 10 10
3 4 4 4 4 4 4 5 5 5 5 5 5 6 6 6 6 6 5 5 5 5 5 5 4 4 4 4 4 4 4 4 4 4 5 6 7 9 10 10 9 9 9
3 3 4 4 4 4 4 4 5 5 5 5 5 6 6 6 6 6 5 5 5 5 5 5 5 4 4 3 4 3 5 5 5 4 4 4 5 5 6 7 8 8 9
3 3 4 4 4 4 4 5 5 5 5 6 6 6 6 6 7 9 9 9 8 7 7 6 5 6 6 5 4 4 4 5 5 2 4 5 5 6 5 5 6 8 9
3 4 4 4 5 5 6 7 7 6 6 6 6 6 5 5 6 6 7 8 9 10 11 9 8 8 7 5 5 6 6 6 7 4 4 6 5 6 5 5 8 10 10
4 4 4 5 5 5 6 7 8 7 7 7 7 7 7 7 6 6 6 7 7 8 9 9 9 8 7 6 6 6 6 7 6 4 4 6 5 6 5 6 7 9 10
4 4 4 5 6 5 6 7 7 6 6 7 7 7 7 8 7 7 7 7 8 7 7 9 9 9 8 9 7 5 5 5 6 5 3 5 5 5 6 6 5 8 10
4 4 4 5 6 6 6 7 8 5 6 6 5 6 8 9 8 9 8 8 9 8 6 6 7 8 8 8 9 8 6 5 5 4 3 3 4 3 5 4 4 4 6
Wind_Direction
167 160 158 158 153 150 151 143 153 149 151 149 147 149 142 136 128 119 101 70 44 42 65 72 66 65 74 86 84 68 52 35 28 17 346 331 323 320 318 320 322 329 333
170 167 160 158 153 158 155 154 147 156 146 140 139 143 143 140 130 120 108 103 67 44 50 59 53 48 46 67 81 75 57 38 31 25 12 358 351 339 330 326 323 325 323
176 169 161 158 154 158 161 157 144 153 146 140 137 130 128 125 130 123 111 104 105 71 51 49 45 39 33 42 60 68 59 47 39 30 25 13 3 351 337 333 331 327 326
177 166 160 157 159 165 166 162 155 153 155 152 144 135 130 123 132 125 119 107 89 89 80 51 36 32 28 30 39 51 56 50 40 31 23 14 5 354 341 336 333 329 327
181 171 160 154 161 166 166 166 163 162 160 154 144 140 141 144 146 138 129 115 100 73 74 96 69 38 25 25 27 33 41 43 39 29 19 11 2 354 347 344 339 334 332
175 177 159 155 158 162 166 166 162 155 161 155 143 140 146 152 163 153 145 127 115 98 31 20 128 87 48 27 20 16 18 22 25 18 11 3 357 353 351 346 343 338 335
176 188 168 158 168 171 175 167 163 155 158 160 160 154 156 167 168 164 170 158 137 114 42 351 344 332 76 60 26 10 6 2 2 2 356 348 344 343 341 340 339 334 329
184 188 180 168 172 172 173 168 166 166 162 184 196 183 184 186 178 185 190 190 192 173 200 336 348 341 327 319 41 14 360 351 345 345 346 344 339 335 335 334 333 333 329
190 183 185 175 174 181 176 174 177 183 176 180 209 220 206 197 165 179 197 209 213 217 223 239 280 299 310 316 320 24 1 353 339 331 333 332 333 332 330 329 327 328 327
191 184 185 184 181 183 176 176 184 187 190 189 190 237 289 298 205 184 188 201 220 236 235 232 247 254 263 267 313 353 349 343 331 321 322 322 325 324 323 324 326 326 325
184 181 183 188 186 187 182 179 184 191 195 198 194 191 195 208 229 230 212 200 209 224 238 242 238 238 234 240 259 322 322 319 313 311 309 313 316 318 318 320 321 322 324
186 178 180 189 189 190 185 185 188 195 199 199 201 206 206 207 201 220 232 226 232 222 232 240 244 241 234 243 254 316 303 305 303 305 301 302 307 310 312 314 315 318 318
195 192 188 193 189 188 187 187 189 196 200 202 207 210 215 232 232 233 238 236 244 245 236 230 231 242 242 253 256 277 277 293 298 299 299 298 301 304 308 309 311 313 314
200 194 197 197 193 187 184 186 192 197 198 202 211 214 216 221 232 235 235 233 239 236 233 234 221 225 245 256 286 264 262 277 288 293 295 299 302 304 305 306 308 309 310
191 192 196 193 188 187 187 188 198 198 195 199 204 205 213 213 221 231 231 236 243 246 241 234 231 218 246 262 275 269 276 283 280 283 288 293 295 298 300 300 300 301 301
184 189 186 188 187 187 190 193 197 197 197 198 204 210 214 217 213 220 222 229 238 249 252 244 252 268 269 268 271 276 278 281 271 277 281 284 286 288 291 293 293 292 293
195 189 183 186 190 197 200 201 203 198 203 205 207 214 221 221 221 222 225 227 229 235 246 255 261 270 268 267 271 277 279 279 275 275 281 284 282 283 285 288 288 287 288
195 187 185 189 191 197 205 211 209 208 211 213 215 218 224 225 228 229 228 229 230 232 243 257 262 265 267 268 274 276 279 279 280 283 281 283 284 284 283 284 285 284 284
192 190 195 197 197 200 206 213 217 217 219 223 224 226 229 231 233 233 235 235 233 236 243 254 262 268 271 268 274 272 273 277 280 280 277 277 279 281 282 281 283 282 282
200 201 205 208 206 205 211 215 218 223 227 229 230 232 233 234 240 239 240 240 235 235 239 247 255 262 267 270 268 272 277 280 279 281 277 276 274 273 274 275 276 276 279
210 211 213 217 217 219 218 216 221 227 232 235 235 236 237 239 246 248 246 243 237 234 236 242 251 257 257 256 259 270 278 289 282 275 282 276 278 277 274 271 269 271 275
215 216 220 223 225 232 219 223 232 233 233 237 240 240 238 233 237 243 248 249 247 243 240 242 248 252 257 259 260 261 271 281 279 262 283 281 278 278 280 280 284 281 278
218 225 227 229 234 237 225 227 231 239 240 241 242 242 240 237 235 242 243 243 245 246 248 251 252 255 260 258 257 258 257 264 270 278 282 277 274 274 277 275 278 278 279
223 229 234 238 241 242 231 234 234 241 245 244 244 244 246 244 236 239 246 250 251 248 244 243 250 257 260 258 251 257 264 271 276 264 258 272 277 278 283 277 270 272 275
231 235 239 240 243 244 235 237 237 244 245 247 246 245 245 247 239 237 243 248 254 255 246 242 254 261 262 258 253 252 251 256 268 264 249 266 278 289 286 277 267 264 270
237 238 242 244 246 250 242 241 240 243 246 248 246 243 239 244 245 237 242 245 252 258 257 250 246 249 251 245 238 237 240 246 262 266 230 248 272 292 288 275 276 277 270